• în Republica Moldova
  • Lista ţărilor
  • Pe 7 zile
  • Temperatura apei
  • Hartă satelitară
  • Meteo pe hartă
  • Widget-uri
  • user-avatar
    Intrare

    Meteo pe oră la Sidi Bu-l-Abbas

    Astăzi, 24 Martie, Vineri

    Timp Temperatura Precipitaţii Vânt Presiune Umiditate
    00:00 +6°C° 0 mm 2 m/s 718 mmHg 82%
    01:00 +6°C° 0,5 mm 2 m/s 718 mmHg 82%
    02:00 +7°C° 0,5 mm 1 m/s 717 mmHg 83%
    03:00 +7°C° 0,5 mm 1 m/s 717 mmHg 84%
    04:00 +7°C° 0,6 mm 1 m/s 717 mmHg 85%
    05:00 +6°C° 0,6 mm 1 m/s 717 mmHg 85%
    06:00 +5°C° 0 mm 2 m/s 717 mmHg 82%
    07:00 +6°C° 0,2 mm 2 m/s 717 mmHg 78%
    08:00 +8°C° 0,2 mm 1 m/s 718 mmHg 74%
    09:00 +9°C° 0,2 mm 1 m/s 718 mmHg 70%
    10:00 +10°C° 0,1 mm 1 m/s 718 mmHg 63%
    11:00 +10°C° 0,1 mm 2 m/s 718 mmHg 56%
    12:00 +11°C° 0,1 mm 3 m/s 719 mmHg 50%
    13:00 +12°C° 0,1 mm 3 m/s 718 mmHg 48%
    14:00 +12°C° 0,1 mm 4 m/s 718 mmHg 47%
    15:00 +12°C° 0,1 mm 4 m/s 718 mmHg 45%
    16:00 +11°C° 0 mm 3 m/s 718 mmHg 51%
    17:00 +10°C° 0 mm 3 m/s 718 mmHg 57%
    18:00 +9°C° 0 mm 2 m/s 718 mmHg 63%
    19:00 +7°C° 0 mm 2 m/s 718 mmHg 69%
    20:00 +6°C° 0 mm 2 m/s 719 mmHg 75%
    21:00 +5°C° 0 mm 1 m/s 719 mmHg 80%
    22:00 +6°C° 0 mm 1 m/s 719 mmHg 79%
    23:00 +5°C° 0 mm 2 m/s 720 mmHg 77%

    Mâine, 25 Martie, Sâmbătă

    Timp Temperatura Precipitaţii Vânt Presiune Umiditate
    00:00 +5°C° 0 mm 2 m/s 720 mmHg 76%
    01:00 +6°C° 0 mm 2 m/s 720 mmHg 75%
    02:00 +6°C° 0 mm 2 m/s 720 mmHg 73%
    03:00 +6°C° 0 mm 2 m/s 720 mmHg 72%
    04:00 +5°C° 0 mm 2 m/s 720 mmHg 73%
    05:00 +5°C° 0 mm 2 m/s 720 mmHg 73%
    06:00 +5°C° 0 mm 2 m/s 720 mmHg 73%
    07:00 +7°C° 0 mm 2 m/s 721 mmHg 63%
    08:00 +10°C° 0 mm 2 m/s 722 mmHg 52%
    09:00 +14°C° 0 mm 1 m/s 722 mmHg 42%
    10:00 +15°C° 0 mm 2 m/s 722 mmHg 38%
    11:00 +17°C° 0 mm 2 m/s 722 mmHg 34%
    12:00 +18°C° 0 mm 2 m/s 722 mmHg 31%
    13:00 +19°C° 0 mm 3 m/s 721 mmHg 30%
    14:00 +19°C° 0 mm 3 m/s 720 mmHg 29%
    15:00 +20°C° 0 mm 3 m/s 720 mmHg 28%
    16:00 +18°C° 0 mm 3 m/s 719 mmHg 35%
    17:00 +16°C° 0 mm 3 m/s 719 mmHg 41%
    18:00 +13°C° 0 mm 3 m/s 718 mmHg 48%
    19:00 +12°C° 0 mm 2 m/s 719 mmHg 54%
    20:00 +10°C° 0 mm 2 m/s 719 mmHg 60%
    21:00 +8°C° 0 mm 2 m/s 719 mmHg 66%
    22:00 +8°C° 0 mm 2 m/s 719 mmHg 63%
    23:00 +8°C° 0 mm 2 m/s 719 mmHg 59%

    Poimâine, 26 Martie, Duminică

    Timp Temperatura Precipitaţii Vânt Presiune Umiditate
    00:00 +9°C° 0 mm 2 m/s 719 mmHg 56%
    01:00 +8°C° 0 mm 2 m/s 719 mmHg 57%
    02:00 +9°C° 0 mm 1 m/s 718 mmHg 58%
    03:00 +8°C° 0 mm 1 m/s 718 mmHg 59%
    04:00 +8°C° 0 mm 1 m/s 718 mmHg 60%
    05:00 +8°C° 0 mm 1 m/s 718 mmHg 62%
    06:00 +7°C° 0 mm 1 m/s 718 mmHg 64%
    07:00 +11°C° 0 mm 1 m/s 718 mmHg 55%
    08:00 +14°C° 0 mm 2 m/s 719 mmHg 46%
    09:00 +18°C° 0 mm 2 m/s 719 mmHg 36%
    10:00 +20°C° 0 mm 2 m/s 719 mmHg 34%
    11:00 +21°C° 0 mm 2 m/s 719 mmHg 31%
    12:00 +24°C° 0 mm 2 m/s 719 mmHg 29%
    13:00 +24°C° 0 mm 3 m/s 718 mmHg 31%
    14:00 +24°C° 0 mm 3 m/s 718 mmHg 32%
    15:00 +24°C° 0 mm 3 m/s 717 mmHg 34%
    16:00 +21°C° 0 mm 3 m/s 717 mmHg 44%
    17:00 +18°C° 0 mm 2 m/s 717 mmHg 54%
    18:00 +16°C° 0 mm 1 m/s 717 mmHg 65%
    19:00 +14°C° 0 mm 2 m/s 717 mmHg 71%
    20:00 +13°C° 0 mm 2 m/s 718 mmHg 78%
    21:00 +10°C° 0 mm 2 m/s 719 mmHg 85%
    22:00 +10°C° 0 mm 2 m/s 719 mmHg 87%
    23:00 +10°C° 0 mm 2 m/s 720 mmHg 88%

    27 Martie, Luni

    Timp Temperatura Precipitaţii Vânt Presiune Umiditate
    00:00 +10°C° 0 mm 2 m/s 720 mmHg 90%
    01:00 +9°C° 0 mm 2 m/s 720 mmHg 91%
    02:00 +9°C° 0 mm 2 m/s 720 mmHg 92%
    03:00 +8°C° 0 mm 2 m/s 721 mmHg 93%
    04:00 +9°C° 0 mm 1 m/s 721 mmHg 93%
    05:00 +8°C° 0 mm 1 m/s 721 mmHg 94%
    06:00 +8°C° 0 mm 1 m/s 721 mmHg 94%
    07:00 +11°C° 0 mm 1 m/s 722 mmHg 83%
    08:00 +14°C° 0 mm 1 m/s 723 mmHg 72%
    09:00 +16°C° 0 mm 1 m/s 724 mmHg 61%
    10:00 +18°C° 0 mm 2 m/s 724 mmHg 57%
    11:00 +19°C° 0 mm 2 m/s 724 mmHg 52%
    12:00 +20°C° 0 mm 3 m/s 724 mmHg 48%
    13:00 +20°C° 0 mm 3 m/s 724 mmHg 49%
    14:00 +20°C° 0 mm 3 m/s 724 mmHg 50%
    15:00 +20°C° 0 mm 4 m/s 723 mmHg 51%
    16:00 +18°C° 0 mm 3 m/s 723 mmHg 58%
    17:00 +16°C° 0 mm 2 m/s 723 mmHg 65%
    18:00 +15°C° 0 mm 2 m/s 723 mmHg 71%
    19:00 +13°C° 0 mm 2 m/s 723 mmHg 77%
    20:00 +12°C° 0 mm 1 m/s 724 mmHg 83%
    21:00 +10°C° 0 mm 1 m/s 724 mmHg 89%
    22:00 +10°C° 0 mm 1 m/s 724 mmHg 89%
    23:00 +9°C° 0 mm 1 m/s 724 mmHg 90%

    28 Martie, Marţi

    Timp Temperatura Precipitaţii Vânt Presiune Umiditate
    00:00 +9°C° 0 mm 1 m/s 724 mmHg 90%
    01:00 +8°C° 0 mm 0 m/s 724 mmHg 90%
    02:00 +7°C° 0 mm 0 m/s 723 mmHg 90%
    03:00 +7°C° 0 mm 0 m/s 723 mmHg 90%
    04:00 +7°C° 0 mm 0 m/s 723 mmHg 90%
    05:00 +7°C° 0 mm 0 m/s 724 mmHg 90%
    06:00 +7°C° 0 mm 0 m/s 724 mmHg 90%
    07:00 +11°C° 0 mm 1 m/s 724 mmHg 78%
    08:00 +14°C° 0 mm 1 m/s 725 mmHg 65%
    09:00 +18°C° 0 mm 1 m/s 726 mmHg 53%
    10:00 +18°C° 0 mm 2 m/s 726 mmHg 48%
    11:00 +19°C° 0 mm 2 m/s 726 mmHg 43%
    12:00 +20°C° 0 mm 3 m/s 726 mmHg 39%
    13:00 +20°C° 0 mm 3 m/s 726 mmHg 39%
    14:00 +20°C° 0 mm 4 m/s 725 mmHg 39%
    15:00 +21°C° 0 mm 4 m/s 725 mmHg 39%
    16:00 +19°C° 0 mm 4 m/s 725 mmHg 45%
    17:00 +17°C° 0 mm 3 m/s 725 mmHg 51%
    18:00 +16°C° 0 mm 3 m/s 725 mmHg 58%
    19:00 +14°C° 0 mm 2 m/s 726 mmHg 66%
    20:00 +12°C° 0 mm 2 m/s 726 mmHg 75%
    21:00 +10°C° 0 mm 1 m/s 726 mmHg 83%
    22:00 +9°C° 0 mm 1 m/s 726 mmHg 83%
    23:00 +9°C° 0 mm 1 m/s 726 mmHg 83%

    29 Martie, Miercuri

    Timp Temperatura Precipitaţii Vânt Presiune Umiditate
    00:00 +8°C° 0 mm 1 m/s 726 mmHg 83%
    01:00 +8°C° 0 mm 1 m/s 726 mmHg 83%
    02:00 +8°C° 0 mm 1 m/s 725 mmHg 83%
    03:00 +6°C° 0 mm 0 m/s 725 mmHg 82%
    04:00 +6°C° 0 mm 0 m/s 725 mmHg 82%
    05:00 +7°C° 0 mm 1 m/s 725 mmHg 82%
    06:00 +7°C° 0 mm 1 m/s 726 mmHg 82%
    07:00 +11°C° 0 mm 1 m/s 726 mmHg 68%
    08:00 +15°C° 0 mm 1 m/s 727 mmHg 53%
    09:00 +19°C° 0 mm 1 m/s 728 mmHg 39%
    10:00 +20°C° 0 mm 2 m/s 728 mmHg 35%
    11:00 +21°C° 0 mm 2 m/s 728 mmHg 31%
    12:00 +24°C° 0 mm 3 m/s 727 mmHg 27%
    13:00 +24°C° 0 mm 3 m/s 727 mmHg 27%
    14:00 +23°C° 0 mm 4 m/s 726 mmHg 27%
    15:00 +23°C° 0 mm 4 m/s 726 mmHg 27%
    16:00 +21°C° 0 mm 4 m/s 726 mmHg 33%
    17:00 +19°C° 0 mm 3 m/s 725 mmHg 40%
    18:00 +17°C° 0 mm 3 m/s 725 mmHg 47%
    19:00 +14°C° 0 mm 3 m/s 725 mmHg 52%
    20:00 +14°C° 0 mm 2 m/s 726 mmHg 58%
    21:00 +12°C° 0 mm 2 m/s 726 mmHg 63%
    22:00 +12°C° 0 mm 2 m/s 726 mmHg 62%
    23:00 +10°C° 0 mm 2 m/s 726 mmHg 61%
    Arată mai mult